Location: Palidano
(44.9667°N, 10.7833°E)
Time: 05:18:37
(UTC+00:00)

Daily predictions for brighter satellites

Satellite Brightness Start Highest point End
(mag) Time Altitude Azimuth Time Altitude Azimuth Time Altitude Azimuth
SL-16 R/B 4.3 02:19:42 23° ENE 02:19:42 23° ENE 02:22:07 10° NE
Cosmos 2369 Rocket 4.5 02:24:49 15° NNE 02:27:22 20° NE 02:31:31 10° E
USA 215 3.8 02:48:53 10° NE 02:54:03 49° N 02:54:03 49° N
Cosmos 2237 Rocket 3.9 03:19:52 22° N 03:19:52 22° N 03:22:10 10° N
NOSS 3-1 (A) 3.9 03:19:35 72° WSW 03:19:36 72° WSW 03:28:14 10° SSE
CZ-4C R/B 3.7 03:21:53 27° N 03:21:53 27° N 03:25:56 10° NNE
Cosmos 2219 Rocket 4.5 03:26:42 12° NNW 03:26:42 12° NNW 03:27:28 10° N
USA 267 3.8 03:22:16 10° SSE 03:26:50 42° S 03:26:50 42° S
Cosmos 1943 Rocket 2.2 03:37:57 39° NNW 03:40:02 73° ENE 03:45:32 10° SSE
Meteor 1-31 Rocket 3.9 03:38:07 10° NNE 03:41:21 42° ENE 03:41:21 42° ENE
Cosmos 1605 Rocket 3.8 03:37:56 10° N 03:44:11 83° W 03:50:18 10° S
Lacrosse 5 1.8 03:45:19 84° ESE 03:45:19 84° ESE 03:50:14 10° SE
CZ-4B R/B 3.9 03:44:19 10° NNE 03:47:46 39° E 03:48:08 38° ESE
ATLAS CENTAUR R/B 3.2 03:52:19 23° N 03:52:19 23° N 03:54:34 10° NNE
ALOS 3.9 03:52:31 10° NNE 03:56:45 33° E 04:00:57 10° SSE
PAYLOAD A 4.1 03:54:33 10° N 03:58:45 54° NW 03:58:45 54° NW
Cosmos 1153 Rocket 4.4 03:54:10 10° N 04:00:21 86° E 04:06:29 10° S
MSX 4.2 03:55:22 10° N 04:00:17 44° NW 04:00:17 44° NW
SL-16 R/B 2.8 04:01:35 37° NW 04:01:35 37° NW 04:06:21 10° NNE
CZ-2C R/B 2.4 03:55:57 10° N 04:01:07 67° WNW 04:01:40 62° WSW
Cosmos 2251 Rocket 4.3 04:03:08 36° NW 04:03:08 36° NW 04:07:10 10° N
Cosmos 1869 4.2 04:00:53 10° SSE 04:04:43 48° E 04:08:32 10° NNE
IDEFIX/ARIANE 42P 4.2 04:03:31 10° N 04:05:34 19° NNW 04:05:34 19° NNW
Cosmos 1633 4.0 04:07:07 10° N 04:10:33 39° ENE 04:13:59 10° SSE
BREEZE-M DEB (TANK) 3.5 04:09:15 41° NW 04:10:56 76° NNE 04:24:34 10° ESE
SKYMED 2 4.2 04:06:45 10° SSE 04:10:59 55° ENE 04:15:15 10° N
Cosmos 2369 Rocket 2.1 04:06:41 12° NNW 04:12:06 82° WSW 04:17:49 10° SSE
Cosmos 1727 Rocket 3.8 04:06:08 10° S 04:12:20 81° W 04:18:33 10° N
H-2A R/B 2.5 04:07:56 10° NNE 04:12:21 86° WNW 04:15:05 24° SSW
Meteor PRIRODA 4.1 04:09:21 10° NNE 04:13:01 60° E 04:16:32 11° S
Cosmos 1500 Rocket 3.4 04:10:44 10° N 04:15:11 81° W 04:19:35 10° S
Cosmos 1603 3.6 04:13:18 20° SSW 04:17:22 88° WNW 04:23:06 10° NNE
Cosmos 2173 Rocket 4.2 04:12:13 10° N 04:18:31 71° E 04:24:41 10° SSE
Cosmos 1656 Rocket 4.3 04:15:09 10° NNW 04:20:46 58° ENE 04:26:22 10° SE
Cosmos 1943 3.3 04:15:43 10° SSW 04:21:19 78° ESE 04:26:58 10° NNE
Aureole 2 Rocket 2.1 04:25:19 67° S 04:25:19 67° S 04:28:10 10° SSE
Cosmos 1743 Rocket 3.5 04:23:30 10° NNW 04:27:44 54° W 04:31:56 10° S
CZ-4B R/B 4.1 04:23:29 10° N 04:27:45 56° WNW 04:30:00 27° SW
Cosmos 2263 4.1 04:23:04 10° NNW 04:28:48 82° WSW 04:34:25 10° SSE
STARLINK-1118 3.2 04:29:28 48° NE 04:29:28 48° NE 04:31:32 10° NE
Okean O Rocket 3.6 04:27:04 10° NNE 04:30:57 31° E 04:34:48 10° SSE
Shenzhou-11 Module 2.6 04:35:31 36° S 04:35:35 36° SSE 04:38:04 10° E
Cosmos 2100 Rocket 3.9 04:29:24 10° N 04:35:38 82° W 04:41:47 10° S
SJ-12 4.0 04:32:03 10° NNE 04:36:11 82° E 04:40:20 10° S
USA 215 4.3 04:31:50 10° NE 04:37:30 33° N 04:41:24 18° WNW
STARLINK-1098 3.7 04:36:27 27° SW 04:38:33 71° SE 04:42:38 10° ENE
Cosmos 1140 Rocket 3.5 04:33:50 10° SSW 04:39:05 90° N 04:44:23 10° NNE
Cosmos 1954 Rocket 4.5 04:34:33 10° S 04:39:47 64° ESE 04:45:05 10° NNE
Cosmos 407 Rocket 3.5 04:35:19 10° SSW 04:40:37 65° WNW 04:45:53 10° NNE
Cosmos 1842 Rocket 4.2 04:40:29 31° W 04:41:18 33° WNW 04:45:24 10° N
Cosmos 1000 Rocket 4.4 04:35:52 10° S 04:42:03 86° W 04:48:19 10° N
Meteor 2-3 Rocket 4.2 04:36:49 10° NNW 04:42:07 39° W 04:47:25 10° SSW
Cosmos 1862 3.9 04:39:32 10° N 04:43:27 57° E 04:47:20 10° SSE
STARLINK-1123 3.6 04:41:19 25° SW 04:43:35 77° SE 04:47:38 10° ENE
GEOS 3 Rocket 3.7 04:40:44 10° NNE 04:46:00 65° NW 04:50:29 15° SW
Cosmos 1459 Rocket 3.9 04:40:06 10° NNW 04:46:17 74° W 04:52:31 10° S
Cosmos 921 Rocket 3.0 04:42:46 10° NNW 04:47:09 59° WSW 04:51:24 10° S
BREEZE M DEB (TANK) 3.7 04:45:29 25° NW 04:47:20 56° NNE 04:55:30 10° E
Cosmos 1484 Rocket 3.0 04:43:49 10° N 04:47:37 47° WNW 04:51:27 10° SW
STARLINK-1097 3.6 04:45:44 23° SW 04:48:13 83° SE 04:52:19 10° ENE
USA 116 3.4 04:45:24 10° SSE 04:48:32 71° ENE 04:51:38 10° N
STARLINK-1099 3.5 04:50:22 21° SW 04:53:01 89° SSE 04:57:08 10° ENE
Cosmos 2061 Rocket 4.0 04:46:43 10° N 04:53:02 90° ENE 04:59:15 10° S
STARLINK-1070 3.1 04:54:21 34° WNW 04:55:12 46° NNW 04:58:03 10° NE
STARLINK-1124 3.3 04:54:42 32° WNW 04:55:28 39° NNW 04:58:15 10° NE
STARLINK-1066 3.1 04:54:55 33° WNW 04:55:46 45° NNW 04:58:38 10° NE
STARLINK-1081 3.1 04:55:09 33° WNW 04:56:02 45° NNW 04:58:52 10° NE
STARLINK-1069 3.1 04:55:34 32° WNW 04:56:27 45° NNW 04:59:17 10° NE
STARLINK-1085 3.1 04:55:46 32° WNW 04:56:39 45° NNW 04:59:30 10° NE
STARLINK-1086 3.2 04:56:02 32° WNW 04:56:57 44° NNW 04:59:47 10° NE
STARLINK-1095 3.2 04:56:13 32° WNW 04:57:08 44° NNW 04:59:58 10° NE
STARLINK-1077 3.2 04:56:27 31° WNW 04:57:22 44° NNW 05:00:12 10° NE
STARLINK-1075 3.2 04:56:39 31° WNW 04:57:35 44° NNW 05:00:25 10° NE
STARLINK-1093 3.2 04:56:52 31° WNW 04:57:48 44° NNW 05:00:39 10° NE
STARLINK-1104 3.5 04:55:03 19° WSW 04:57:54 85° NNW 05:02:00 10° ENE
STARLINK-1074 3.2 04:57:06 31° WNW 04:58:04 44° NNW 05:00:53 10° NE
STARLINK-1087 3.2 04:57:17 31° WNW 04:58:15 43° NNW 05:01:05 10° NE
STARLINK-1088 3.2 04:57:30 30° WNW 04:58:28 43° NNW 05:01:17 10° NE
STARLINK-1115 3.2 04:57:44 30° WNW 04:58:43 43° NNW 05:01:32 10° NE
Cosmos 2221 3.4 04:56:38 18° WSW 04:58:50 28° WNW 05:02:34 10° NNW
STARLINK-1076 3.2 04:57:57 30° WNW 04:58:57 43° NNW 05:01:46 10° NE
COSMO-SKYMED 1 2.8 04:54:54 10° S 04:59:03 45° W 05:03:15 10° NNW
Cosmos 1725 Rocket 4.2 04:52:53 10° N 04:59:11 79° E 05:05:28 10° S
STARLINK-1092 3.2 04:58:11 30° WNW 04:59:12 43° NNW 05:02:01 10° NE
STARLINK-1080 3.2 04:58:22 29° WNW 04:59:22 43° NNW 05:02:12 10° NE
STARLINK-1090 3.2 04:58:36 29° WNW 04:59:37 42° NNW 05:02:27 10° NE
STARLINK-1089 3.2 04:58:51 29° WNW 04:59:53 42° NNW 05:02:43 10° NE
Cosmos 614 Rocket 4.4 04:55:34 12° SW 04:59:58 39° WNW 05:04:52 10° N
STARLINK-1107 3.2 04:59:01 29° WNW 05:00:03 42° NNW 05:02:52 10° NE
STARLINK-1109 3.2 04:59:14 29° WNW 05:00:17 42° NNW 05:03:06 10° NE
STARLINK-1091 3.2 04:59:29 28° WNW 05:00:32 42° NNW 05:03:20 10° NE
STARLINK-1072 3.3 04:59:38 28° WNW 05:00:41 42° NNW 05:03:30 10° NE
STARLINK-1096 3.3 04:59:53 28° WNW 05:00:57 41° NNW 05:03:44 10° NE
STARLINK-1079 3.3 05:00:06 28° WNW 05:01:11 41° NNW 05:04:00 10° NE
STARLINK-1116 3.3 05:00:20 28° WNW 05:01:25 41° NNW 05:04:13 10° NE
Cosmos 1633 Rocket 3.6 04:57:18 10° N 05:01:39 60° ENE 05:05:59 10° SSE
Cosmos 2123 Rocket 4.1 04:55:36 10° S 05:01:55 82° E 05:08:14 10° N
STARLINK-1094 3.3 05:00:48 27° WNW 05:01:55 41° NNW 05:04:44 10° NE
STARLINK-1117 3.3 05:00:58 27° WNW 05:02:05 41° NNW 05:04:53 10° NE
STARLINK-1078 3.3 05:01:12 27° WNW 05:02:20 41° NNW 05:05:08 10° NE
STARLINK-1108 3.3 05:01:25 27° WNW 05:02:34 40° NNW 05:05:22 10° NE
STARLINK-1144 3.5 04:59:40 17° WSW 05:02:44 80° NNW 05:06:50 10° NE
STARLINK-1071 3.3 05:01:37 27° WNW 05:02:45 40° NNW 05:05:33 10° NE
STARLINK-1110 3.3 05:01:53 26° WNW 05:03:02 40° NNW 05:05:51 10° NE
STARLINK-1122 3.3 05:02:16 26° WNW 05:03:27 40° NNW 05:06:15 10° NE
STARLINK-1126 3.3 05:02:28 26° WNW 05:03:39 40° NNW 05:06:28 10° NE
STARLINK-1082 3.3 05:02:43 26° WNW 05:03:54 40° NNW 05:06:42 10° NE
STARLINK-1100 3.3 05:02:56 25° WNW 05:04:08 39° NNW 05:06:55 10° NE
STARLINK-1083 3.3 05:03:08 25° WNW 05:04:20 39° NNW 05:07:09 10° NE
STARLINK-1125 3.3 05:03:21 25° WNW 05:04:34 39° NNW 05:07:22 10° NE
Cosmos 1666 Rocket 3.7 05:00:42 10° N 05:05:10 81° E 05:09:34 10° S
METEOR-M 4.1 05:00:10 10° N 05:05:27 62° WNW 05:10:42 10° SSW
Cosmos 1190 Rocket 4.3 05:00:39 10° SW 05:05:43 47° WNW 05:10:51 10° N
STARLINK-1128 3.5 05:04:15 16° WSW 05:07:24 73° NNW 05:11:27 10° NE
STARLINK-1103 3.5 05:04:22 16° WSW 05:07:36 74° NNW 05:11:43 10° NE
PSLV R/B 4.1 05:04:30 10° N 05:08:03 40° WNW 05:11:37 10° SW
PAYLOAD B 4.2 05:02:48 10° NNE 05:08:25 86° WNW 05:13:58 10° SSW
CZ-4C R/B 4.3 05:07:50 10° NW 05:11:19 15° N 05:15:08 10° NNE
STARLINK-1113 3.6 05:08:39 15° WSW 05:12:00 68° NNW 05:16:03 10° NE
Cosmos 1238 Rocket 3.7 05:06:15 10° NNW 05:12:12 61° W 05:17:11 10° S
Cosmos 1802 Rocket 4.1 05:05:57 10° NNW 05:12:14 58° W 05:18:29 10° S
STARLINK-1101 3.6 05:08:58 14° WSW 05:12:24 70° NNW 05:16:31 10° NE
DMSP B5D1-3 4.4 05:09:33 10° S 05:14:38 79° WSW 05:19:46 10° NNW
BREEZE-M DEB (TANK) 4.1 05:11:12 10° SW 05:14:44 56° SE 05:21:22 10° ENE
BREEZE-M DEB (TANK) 3.1 05:10:14 10° SW 05:15:37 58° SSE 05:18:06 10° ENE
Meteor 1-31 Rocket 4.4 05:13:34 10° NNW 05:15:52 16° WNW 05:16:45 14° W
STARLINK-1119 3.6 05:13:15 13° WSW 05:16:46 64° NNW 05:20:47 10° NE
STARLINK-1102 3.6 05:14:08 13° WSW 05:17:45 64° NNW 05:21:48 10° NE
STARLINK-1179 4.3 05:15:39 10° NW 05:17:53 24° NNE 05:20:11 10° ENE
Cosmos 1864 Rocket 4.4 05:11:57 10° NNW 05:18:04 75° W 05:24:13 10° S
SL-08 R/B 4.4 05:12:05 10° NNW 05:18:13 72° W 05:24:15 10° S
STARLINK-1176 4.3 05:16:11 10° NW 05:18:26 25° NNE 05:20:44 10° E
NOSS 3-3 (A) 4.2 05:14:02 10° SSW 05:19:51 76° SE 05:26:25 10° NE
NOSS 3-3 (C) 4.2 05:14:08 10° SSW 05:19:58 75° SE 05:26:32 10° NE
STARLINK-1114 3.7 05:17:35 12° WSW 05:21:19 60° NNW 05:25:21 10° NE
STARLINK-1111 3.7 05:18:35 11° WSW 05:22:23 60° NNW 05:26:26 10° NE
CZ-4B R/B 4.3 05:20:23 10° NNW 05:22:34 15° WNW 05:24:16 12° W
Cosmos 1943 Rocket 3.5 05:19:44 10° WNW 05:23:06 17° W 05:26:28 10° SW
Cosmos 676 Rocket 4.2 05:18:12 10° SW 05:23:25 54° WNW 05:28:40 10° NNE
STARLINK-1120 4.5 05:22:31 10° NW 05:25:27 29° NNE 05:28:22 10° E
STARLINK-1130 (DARKSAT) 3.7 05:22:19 10° WSW 05:26:13 56° NNW 05:30:12 10° NE
STARLINK-1073 3.8 05:23:01 10° WSW 05:27:04 57° NNW 05:31:08 10° NE
Lacrosse 5 3.4 05:24:33 11° W 05:27:31 18° WSW 05:30:50 10° SSW
STARLINK-1131 4.5 05:24:48 10° NW 05:27:45 30° NNE 05:30:41 10° E
STARLINK-1190 4.4 05:27:08 10° NW 05:30:06 31° NNE 05:33:03 10° E
STARLINK-1084 3.8 05:26:42 10° WSW 05:30:41 53° NNW 05:34:40 10° NE
Cosmos 1315 Rocket 3.5 05:27:44 10° S 05:31:38 60° E 05:35:31 10° NNE
STARLINK-1121 3.8 05:27:56 10° WSW 05:31:58 54° NNW 05:36:01 10° NE
Cosmos 1606 3.3 05:30:00 10° S 05:33:45 62° E 05:37:30 10° NNE
ALOS 3.1 05:30:05 10° N 05:34:04 29° WNW 05:38:03 10° SW
Cosmos 2016 Rocket 4.3 05:29:19 10° NNW 05:35:14 46° W 05:41:11 10° SSW
STARLINK-1106 3.9 05:32:55 10° WSW 05:36:56 51° NNW 05:40:57 10° NE
CZ-2C R/B 4.4 05:37:20 10° NW 05:38:19 11° NW 05:39:18 10° WNW
Cosmos 1400 Rocket 3.3 05:37:21 10° SW 05:41:07 38° WNW 05:44:57 10° N
STARLINK-1112 4.0 05:37:55 10° W 05:41:55 48° NNW 05:45:55 10° NE
FENGYUN 3A 4.4 05:39:11 10° N 05:43:53 30° WNW 05:48:33 10° SW
NOAA 6 4.3 05:39:26 10° N 05:44:25 49° WNW 05:49:22 10° SW
ISS -1.3 05:41:46 10° SSW 05:44:33 24° SE 05:47:21 10° E
Cosmos 1470 Rocket 3.6 05:40:35 10° N 05:45:05 84° W 05:49:33 10° S
Sich 1 4.0 05:41:43 10° NNW 05:45:17 26° W 05:48:53 10° SW
Meteor 2-20 4.4 05:40:01 10° SSW 05:46:05 79° W 05:52:11 10° N
ATLAS 2AS CENTAUR R/B 3.4 05:38:50 10° NW 05:46:25 60° NE 05:53:22 10° SE
ADEOS Rocket 3.3 05:40:21 10° S 05:46:28 57° W 05:53:20 10° NNW
